Location: Huberhof
(49.2050°N, 7.4980°E)
Time: 01:02:02
(UTC+00:00)

CZ-4C R/B - Pass Details

Date: 29 October 2020
Orbit: 624 x 1378 km, 63.4° (Epoch: 26 November)

Event Time Altitude Azimuth Distance (km) Brightness Sun altitude
Rises 16:50:18 0° 305° (NW) 3,496 6.1 -6.6°
Reaches altitude 10° 16:53:07 10° 318° (NW) 2,678 5.2 -7.1°
Maximum altitude 16:58:21 26° 14° (NNE) 1,973 3.9 -7.9°
Drops below altitude 10° 17:04:24 10° 68° (ENE) 3,125 4.5 -8.9°
Enters shadow 17:04:27 10° 68° (ENE) 3,139 4.5 -8.9°
